This demonstration page uses our WeatherBlox Daily Observations layout. Learn more.

Left ArrowRight Arrow

Hourly Observations for April 22, 2021

Temp ( °F °C ) Dew Point ( °F °C ) Humidity (%) Winds ( mph kmh ) Pressure ( in mb ) Visibility ( mi km ) Precip ( " mm )
12:56 am 00:56 Clear 33 0.6 22 -5.6 64 64 SSW 8 13 30.19 1023 10 16 0.00 0.00
1:56 am 01:56 Clear 32 0 21 -6.1 64 64 SSW 7 11 30.18 1022 10 16 0.00 0.00
2:56 am 02:56 Clear 32 0 23 -5 69 69 SSW 8 13 30.16 1021 10 16 0.00 0.00
3:56 am 03:56 Mostly Cloudy 33 0.6 23 -5 66 66 SSW 8 13 30.14 1021 10 16 0.00 0.00
4:56 am 04:56 Cloudy 34 1.1 26 -3.3 73 73 S 8 13 30.13 1020 10 16 0.00 0.00
5:56 am 05:56 Cloudy 36 2.2 25 -3.9 64 64 S 13 20 30.12 1020 10 16 0.00 0.00
6:56 am 06:56 Cloudy 36 2.2 26 -3.3 67 67 S 12 19 30.11 1020 10 16 0.00 0.00
7:56 am 07:56 Cloudy 37 2.8 27 -2.8 67 67 S 12 19 30.13 1020 10 16 0.00 0.00
8:56 am 08:56 Cloudy 39 3.9 28 -2.2 65 65 S 12 19 30.12 1020 10 16 0.00 0.00
9:56 am 09:56 Cloudy 44 6.7 29 -1.7 55 55 S 21 33 30.10 1019 10 16 0.00 0.00
10:56 am 10:56 Mostly Cloudy 45 7.2 28 -2.2 52 52 S 23 37 30.08 1019 10 16 0.00 0.00
11:56 am 11:56 Cloudy 47 8.3 28 -2.2 48 48 S 28 44 30.05 1018 10 16 0.00 0.00
12:56 pm 12:56 Cloudy 46 7.8 29 -1.7 51 51 S 17 28 30.03 1017 10 16 0.00 0.00
1:56 pm 13:56 Mostly Cloudy 50 10 30 -1.1 46 46 SSE 31 50 29.95 1014 10 16 0.00 0.00
2:56 pm 14:56 Mostly Sunny 54 12.2 30 -1.1 40 40 SSE 30 48 29.90 1013 10 16 0.00 0.00
3:56 pm 15:56 Cloudy 53 11.7 31 -0.6 43 43 SSE 32 52 29.88 1012 10 16 0.00 0.00
4:56 pm 16:56 Cloudy 50 10 30 -1.1 46 46 S 22 35 29.90 1012 10 16 0.00 0.00
5:56 pm 17:56 Cloudy 52 11.1 31 -0.6 45 45 SSE 26 43 29.85 1011 10 16 0.00 0.00
6:56 pm 18:56 Sunny 51 10.6 31 -0.6 46 46 SSE 29 46 29.83 1010 10 16 0.00 0.00
7:56 pm 19:56 Sunny 49 9.4 31 -0.6 50 50 SSE 21 33 29.83 1010 10 16 0.00 0.00
8:56 pm 20:56 Clear 47 8.3 31 -0.6 54 54 SSE 22 35 29.83 1010 10 16 0.00 0.00
9:56 pm 21:56 Clear 45 7.2 32 0 61 61 SSE 18 30 29.84 1011 10 16 0.00 0.00
10:56 pm 22:56 Clear 43 6.1 32 0 65 65 SSE 17 28 29.86 1011 10 16 0.00 0.00
11:56 pm 23:56 Clear 42 5.6 33 0.6 71 71 S 14 22 29.85 1011 10 16 0.00 0.00

Powered by AerisWeather